Location: Boulin
(43.2500°N, 0.1333°E)
Time: 22:27:49
(UTC+00:00)

Cosmos 1697 Rocket - Pass Details

Date: 11 December 2025
Orbit: 830 x 843 km, 71.0° (Epoch: 21 January)

Event Time Altitude Azimuth Distance (km) Brightness Sun altitude
Rises 17:05:01 0° 192° (SSW) 3,357 6.4 -7.4°
Reaches altitude 10° 17:07:28 10° 189° (S) 2,428 5.6 -7.8°
Maximum altitude 17:12:56 61° 110° (ESE) 941 2.8 -8.7°
Drops below altitude 10° 17:18:27 10° 31° (NNE) 2,449 4.6 -9.7°
Enters shadow 17:19:33 - 30° (NNE) 2,868 5.0 -9.9°
